Location: Catstown
(52.4386°N, 7.2633°W)
Time: 05:11:35
(UTC+00:00)

Cosmos 1898 Rocket - Pass Details

Date: 18 September 2020
Orbit: 753 x 784 km, 74.0° (Epoch: 20 October)

Event Time Altitude Azimuth Distance (km) Brightness Sun altitude
Rises 20:06:23 0° 219° (SW) 3,197 6.9 -14.2°
Reaches altitude 10° 20:08:48 10° 224° (SW) 2,276 6.2 -14.6°
Maximum altitude 20:13:51 54° 301° (WNW) 918 4.3 -15.3°
Drops below altitude 10° 20:18:57 10° 19° (NNE) 2,298 6.0 -16.0°
Sets 20:21:24 0° 24° (NNE) 3,231 6.8 -16.3°
